Huron, SD

8:11 AM CST on February 07, 2016 (GMT -0600)
Huron Regional

Weather History for KHON - December, 2013

Change the Weather History Date:

Sunday, December 15, 2013

  Actual Average Record
Temperature  
Mean Temperature 9 °F 19 °F  
Max Temperature 12 °F 29 °F 61 °F (1939)
Min Temperature 6 °F 9 °F -23 °F (1963)
Degree Days  
Heating Degree Days 56 46  
Month to date heating degree days 824 657  
Since 1 July heating degree days 2461 2359  
Cooling Degree Days 0 0  
Month to date cooling degree days 0 0  
Year to date cooling degree days 848 742  
Moisture  
Dew Point 3 °F    
Average Humidity 73    
Maximum Humidity 80    
Minimum Humidity 66    
Precipitation  
Precipitation 0.01 in 0.02 in 0.37 in (1902)
Month to date precipitation 0.49 0.26  
Year to date precipitation 24.67 22.64  
Snow  
Snow 0.20 in 0.20 in 3.70 in (1902)
Month to date snowfall 5.5 3.9  
Since 1 July snowfall 8.0 12.2  
Snow Depth 2.00 in    
Sea Level Pressure  
Sea Level Pressure 30.07 in    
Wind  
Wind Speed 8 mph (ESE)    
Max Wind Speed 13 mph    
Max Gust Speed 23 mph    
Visibility 9 miles    
Events Snow    
T = Trace of Precipitation, MM = Missing Value Source: NWS Daily Summary

Daily Weather History Graph

Daily Weather History Graph

Search for Another Location

Airport or City:

Trip Planner

Search our weather history database for the weather conditions in past years. The results will help you decide how hot, cold, wet, or windy it might be!

Date:

Astronomy

Dec. 15, 2013 Rise Set
Actual Time 8:02 AM CST 4:54 PM CST
Civil Twilight 7:28 AM CST 5:27 PM CST
Nautical Twilight 6:52 AM CST 6:04 PM CST
Astronomical Twilight 6:16 AM CST 6:39 PM CST
Moon 4:02 PM CST (12/15) 6:17 AM CST (12/15)
Length of Visible Light 9h 58m
Length of Day
8h 51m
Waxing Gibbous, 98% of the Moon is Illuminated
Dec 15
Waxing Gibbous
Dec 17
Full
Dec 25
Last Quarter
Jan 1
New
Jan 7
First Quarter

Hourly Weather History & Observations

Time (CST) Temp. Windchill Dew Point Humidity Pressure Visibility Wind Dir Wind Speed Gust Speed Precip Events Conditions
12:55 AM 10.0 °F 1.8 °F 3.9 °F 76% 30.18 in 10.0 mi ENE 4.6 mph - N/A   Overcast
1:55 AM 10.0 °F 1.8 °F 3.0 °F 73% 30.17 in 10.0 mi ENE 4.6 mph - N/A   Overcast
2:55 AM 10.0 °F 1.8 °F 1.9 °F 70% 30.17 in 10.0 mi East 4.6 mph - N/A   Overcast
3:55 AM 10.0 °F 1.8 °F 1.9 °F 70% 30.17 in 10.0 mi ENE 4.6 mph - N/A   Mostly Cloudy
4:55 AM 10.0 °F 1.8 °F 3.0 °F 73% 30.16 in 10.0 mi East 4.6 mph - N/A   Overcast
5:55 AM 10.0 °F 1.8 °F 3.0 °F 73% 30.16 in 10.0 mi East 4.6 mph - N/A   Overcast
6:11 AM 10.4 °F 2.2 °F 1.4 °F 67% 30.07 in 10.0 mi ENE 4.6 mph - N/A   Overcast
6:55 AM 10.0 °F 1.8 °F 1.9 °F 70% 30.14 in 10.0 mi East 4.6 mph - N/A   Overcast
7:12 AM 10.4 °F 0.8 °F 3.2 °F 73% 30.05 in 10.0 mi East 5.8 mph - N/A   Overcast
7:20 AM 10.4 °F 2.2 °F 3.2 °F 73% 30.06 in 10.0 mi East 4.6 mph - N/A   Overcast
7:35 AM 10.4 °F 0.8 °F 3.2 °F 73% 30.05 in 10.0 mi East 5.8 mph - N/A   Overcast
7:55 AM 10.9 °F 1.4 °F 3.0 °F 70% 30.14 in 6.0 mi East 5.8 mph - 0.00 in Snow Light Snow
8:55 AM 10.0 °F -0.9 °F 3.9 °F 76% 30.15 in 2.0 mi ESE 6.9 mph - 0.00 in Snow Light Snow
9:05 AM 10.4 °F -2.4 °F 3.2 °F 73% 30.06 in 1.8 mi East 9.2 mph - 0.00 in Snow Light Snow
9:28 AM 8.6 °F -5.5 °F 3.2 °F 79% 30.06 in 2.0 mi East 10.4 mph - 0.00 in Snow Light Snow
9:38 AM 8.6 °F -4.7 °F 3.2 °F 79% 30.05 in 1.5 mi ESE 9.2 mph - 0.01 in Snow Light Snow
9:46 AM 8.6 °F -5.5 °F 3.2 °F 79% 30.05 in 2.0 mi East 10.4 mph - 0.01 in Snow Light Snow
9:55 AM 9.0 °F -5.9 °F 3.0 °F 77% 30.14 in 6.0 mi East 11.5 mph - 0.01 in Snow Light Snow
10:17 AM 8.6 °F -3.7 °F 3.2 °F 79% 30.05 in 8.0 mi East 8.1 mph - 0.00 in   Overcast
10:55 AM 9.0 °F -5.1 °F 3.9 °F 80% 30.14 in 6.0 mi ESE 10.4 mph - 0.00 in   Haze
11:07 AM 8.6 °F -5.5 °F 3.2 °F 79% 30.04 in 7.0 mi ESE 10.4 mph - 0.00 in Snow Light Snow
11:55 AM 10.0 °F -2.9 °F 3.9 °F 76% 30.11 in 9.0 mi ESE 9.2 mph - 0.00 in   Overcast
12:34 PM 10.4 °F -3.3 °F 3.2 °F 73% 30.01 in 10.0 mi ESE 10.4 mph - N/A   Overcast
12:43 PM 10.4 °F -2.4 °F 3.2 °F 73% 30.00 in 10.0 mi ESE 9.2 mph - N/A   Overcast
12:55 PM 10.0 °F -3.7 °F 3.9 °F 76% 30.09 in 10.0 mi ESE 10.4 mph - N/A   Overcast
1:15 PM 10.4 °F -1.5 °F 3.2 °F 73% 29.99 in 10.0 mi ESE 8.1 mph - N/A   Overcast
1:37 PM 10.4 °F -3.3 °F 3.2 °F 73% 29.99 in 10.0 mi ESE 10.4 mph - N/A   Overcast
1:55 PM 10.9 °F -4.1 °F 3.9 °F 73% 30.06 in 10.0 mi ESE 12.7 mph - N/A   Overcast
2:19 PM 10.4 °F -2.4 °F 5.0 °F 79% 29.98 in 10.0 mi ESE 9.2 mph - N/A   Overcast
2:55 PM 12.0 °F -2.0 °F 5.0 °F 73% 30.04 in 10.0 mi ESE 11.5 mph - N/A   Mostly Cloudy
3:14 PM 10.4 °F -3.3 °F 5.0 °F 79% 29.96 in 10.0 mi SE 10.4 mph - N/A   Mostly Cloudy
3:55 PM 12.0 °F -0.4 °F 5.0 °F 73% 30.06 in 10.0 mi SE 9.2 mph - N/A   Scattered Clouds
4:13 PM 12.2 °F 0.7 °F 5.0 °F 73% 29.98 in 10.0 mi SE 8.1 mph - N/A   Mostly Cloudy
4:55 PM 10.9 °F -1.8 °F 3.9 °F 73% 30.07 in 10.0 mi ESE 9.2 mph - N/A   Overcast
5:47 PM 10.4 °F -1.5 °F 5.0 °F 79% 29.98 in 10.0 mi SE 8.1 mph - 0.00 in   Overcast
5:55 PM 10.9 °F -0.8 °F 5.0 °F 77% 30.05 in 10.0 mi SE 8.1 mph - 0.00 in   Overcast
6:55 PM 10.9 °F -1.8 °F 3.9 °F 73% 30.06 in 10.0 mi SE 9.2 mph - 0.00 in   Overcast
7:27 PM 10.4 °F -1.5 °F 3.2 °F 73% 29.98 in 10.0 mi SE 8.1 mph - N/A   Scattered Clouds
7:55 PM 9.0 °F -2.2 °F 3.0 °F 77% 30.07 in 10.0 mi ESE 6.9 mph - N/A   Scattered Clouds
8:39 PM 8.6 °F -2.6 °F 1.4 °F 73% 29.99 in 10.0 mi SE 6.9 mph - N/A   Mostly Cloudy
8:55 PM 8.1 °F -4.3 °F 1.9 °F 76% 30.06 in 10.0 mi SE 8.1 mph - N/A   Overcast
9:17 PM 6.8 °F -5.9 °F 1.4 °F 79% 29.97 in 10.0 mi SE 8.1 mph - N/A   Scattered Clouds
9:55 PM 7.0 °F -5.7 °F 1.0 °F 77% 30.06 in 10.0 mi SE 8.1 mph - N/A   Clear
10:55 PM 7.0 °F -5.7 °F 1.0 °F 77% 30.04 in 10.0 mi SE 8.1 mph - N/A   Clear
11:55 PM 7.0 °F -5.7 °F 1.0 °F 77% 30.04 in 10.0 mi SSE 8.1 mph - N/A   Clear